Location: Caltech
(34.1382°N, 118.1253°W)
Time: 01:41:40
(UTC-07:00)

Daily predictions for brighter satellites

Satellite Brightness Start Highest point End
(mag) Time Altitude Azimuth Time Altitude Azimuth Time Altitude Azimuth
ATLAS 3B R/B 4.4 00:35:13 10° N 00:39:27 25° NNE 00:39:27 25° NNE
ATLAS 2AS CENTAUR R/B 4.1 01:51:28 36° NW 01:51:28 36° NW 01:58:01 10° NNE
Cosmos 2369 Rocket 4.4 02:03:41 10° NNW 02:05:06 18° NNW 02:05:06 18° NNW
Resurs 1-4 Rocket 4.4 02:12:18 10° NE 02:14:22 17° ENE 02:14:22 17° ENE
CZ-2D R/B 4.3 02:19:03 10° NE 02:21:34 20° ENE 02:21:34 20° ENE
Cosmos 1943 Rocket 3.9 02:26:08 10° NNW 02:28:39 27° N 02:28:39 27° N
BREEZE M DEB (TANK) 4.1 02:17:46 10° NW 02:35:42 76° NNE 02:35:42 76° NNE
Nadezhda 3 Rocket 4.2 03:04:28 64° N 03:04:28 64° N 03:09:43 10° N
ARIANE 5 R/B 3.4 03:01:20 10° NNE 03:05:16 46° NE 03:05:16 46° NE
GEOS 3 Rocket 4.3 03:07:22 10° NNE 03:11:23 50° N 03:11:23 50° N
Cosmos 1656 Rocket 4.2 03:10:35 10° NNW 03:15:00 53° NNE 03:15:00 53° NNE
Cosmos 1818 4.5 03:18:33 41° E 03:18:33 41° E 03:23:15 10° NE
NOSS 3-2 (C) 4.0 03:10:54 10° NNW 03:18:38 85° ENE 03:26:54 10° SSE
Lacrosse 5 rocket 2.9 03:21:48 38° ENE 03:21:48 38° ENE 03:24:51 10° NE
USA 267 3.3 03:20:49 10° SE 03:27:20 76° NE 03:33:52 10° NW
CENTAUR R/B 4.2 03:25:09 10° NNW 03:32:38 42° NE 03:40:28 10° ESE
ADEOS Rocket 3.0 03:29:56 10° N 03:36:01 75° WNW 03:36:28 72° WSW
RESURS DK-1 4.3 03:38:49 22° NNW 03:38:49 22° NNW 03:40:40 10° N
NOSS 2-2 (D) 4.2 03:42:56 49° NNE 03:42:56 49° NNE 03:46:12 10° NNE
SL-16 R/B 2.6 03:50:41 55° W 03:50:41 55° W 03:56:26 10° NNW
COSMOS 2455 2.7 03:46:34 10° NNW 03:52:34 72° WSW 03:53:34 60° S
CZ-2D R/B 3.8 03:49:58 10° NNE 03:53:19 59° NNE 03:53:19 59° NNE
Cosmos 1821 Rocket 3.9 03:49:17 10° NNW 03:55:19 63° W 03:55:53 60° WSW
Resurs 1-4 Rocket 2.7 03:51:03 10° N 03:55:28 41° WNW 03:55:28 41° WNW
NOSS 3-2 (A) 4.3 03:52:47 10° NW 03:59:34 42° WSW 03:59:34 42° WSW
NOSS 2-2 (C) 3.9 04:00:47 51° NNW 04:00:47 51° NNW 04:04:34 10° NNE
CZ-2D R/B 2.9 03:58:26 10° N 04:02:54 36° WNW 04:02:54 36° WNW
Cosmos 1624 Rocket 3.8 03:59:42 10° NNW 04:04:56 84° WSW 04:07:10 35° S
USA 32 4.3 04:07:34 49° W 04:07:34 49° W 04:12:32 10° N
Cosmos 2082 Rocket 3.5 04:03:54 17° SSE 04:07:43 37° ESE 04:12:53 10° NE
Okean O Rocket 3.2 04:04:03 10° NE 04:08:01 31° E 04:11:05 15° SSE
Cosmos 1833 Rocket 4.0 04:06:58 15° SSE 04:11:00 35° ESE 04:16:01 10° NE
COSMOS 2406 4.3 04:10:52 27° WNW 04:11:12 28° WNW 04:16:06 10° N
Cosmos 1707 2.7 04:14:20 71° SSE 04:14:40 79° E 04:18:33 10° N
Tiangong 1 3.5 04:14:28 15° N 04:14:58 16° N 04:16:51 10° NE
Cosmos 1605 Rocket 3.8 04:09:41 10° N 04:15:54 83° W 04:20:46 17° S
Landsat 4 4.3 04:14:20 23° SE 04:16:27 56° ENE 04:20:06 10° N
MOS 1 Rocket 3.0 04:13:09 10° N 04:17:29 78° WNW 04:18:22 56° SSW
Cosmos 1339 Rocket 4.3 04:14:52 30° S 04:18:07 87° W 04:24:14 10° N
Cosmos 2056 Rocket 3.4 04:12:54 10° NNW 04:18:10 67° WSW 04:21:07 26° S
Cosmos 1934 Rocket 4.1 04:12:58 10° NNW 04:19:02 52° W 04:21:17 36° SW
Cosmos 1953 3.5 04:16:30 10° NNW 04:18:51 29° NW 04:18:51 29° NW
CZ-4B R/B 4.4 04:15:23 10° NNE 04:20:22 39° E 04:25:16 10° SSE
Cosmos 1470 2.6 04:19:38 10° N 04:23:32 82° W 04:24:21 54° S
UNKNOWN OBJECT B 4.3 04:31:59 10° NNW 04:34:47 23° WNW 04:34:47 23° WNW
USA 161 3.8 04:39:17 15° NW 04:39:17 15° NW 04:39:57 10° NNW
Cosmos 1378 3.0 04:39:36 38° SSW 04:40:52 70° W 04:44:36 10° N
Cosmos 158 Rocket 4.5 04:37:15 12° S 04:41:42 56° ESE 04:46:40 10° NNE
ARIANE 5 R/B 4.3 04:42:16 10° NNW 04:45:04 15° WNW 04:45:37 14° WNW
Delta 2 Rocket 3.0 04:44:08 35° WNW 04:45:20 65° N 04:48:41 10° E
Cosmos 2100 Rocket 4.2 04:40:01 10° N 04:46:12 71° E 04:52:18 10° SSE
Geosat FO 4.5 04:43:49 10° SSE 04:47:24 88° WSW 04:51:02 10° NNW
Cosmos 1842 Rocket 3.8 04:44:49 10° N 04:49:13 73° E 04:53:38 10° SSE
COSMOS 2487 3.0 04:48:49 36° WSW 04:49:32 40° WNW 04:52:55 10° N
Meteor 1-24 Rocket 3.7 04:45:14 10° S 04:50:36 81° E 04:56:12 10° N
Intercosmos 25 4.1 04:45:29 10° NNW 04:52:20 63° W 04:56:33 10° S
Cosmos 1452 Rocket 3.4 04:48:03 10° NNW 04:53:19 81° WSW 04:58:33 10° SSE
IRS-1C Rocket 4.1 04:48:32 10° NNE 04:53:50 88° ESE 04:59:06 10° SSW
PSLV R/B 4.1 04:50:11 10° N 04:54:10 51° WNW 04:56:32 23° SW
Cosmos-2242 3.6 04:50:38 10° NNW 04:54:40 36° W 04:56:58 21° SW
Cosmos 2173 Rocket 4.2 04:48:40 10° N 04:54:58 76° E 05:01:08 10° S
PSLV R/B 3.5 04:54:39 10° N 04:59:02 84° W 05:03:20 10° SSW
Lacrosse 5 rocket 3.4 04:57:31 15° WNW 04:59:50 20° NW 05:03:19 10° N
ADEOS II 2.1 04:58:36 10° N 05:03:49 66° WNW 05:09:00 10° SSW
Cosmos 921 Rocket 4.3 05:01:00 10° NW 05:04:25 21° W 05:05:25 20° WSW
CZ-4B R/B 3.3 05:00:17 10° N 05:04:29 52° WNW 05:08:16 13° SSW
CZ-2C R/B 4.0 05:01:18 10° SSE 05:05:41 68° ENE 05:10:06 10° N
Cosmos 1733 4.5 05:03:11 10° NW 05:06:04 21° W 05:06:34 20° W
Cosmos 2061 Rocket 4.0 05:01:49 10° N 05:08:04 89° WNW 05:14:15 10° S
USA 267 4.2 05:05:36 10° S 05:10:38 24° WSW 05:15:41 10° WNW
Cosmos 1420 Rocket 4.0 05:05:37 10° NNW 05:10:57 88° WSW 05:16:14 10° SSE
GPS 2-05 Rocket1 3.0 05:09:13 21° WSW 05:11:21 62° SSE 05:14:45 10° E
Cosmos 1048 Rocket 4.0 05:08:06 12° SSW 05:12:53 60° WNW 05:17:57 10° N
Cosmos 2221 3.5 05:10:00 10° N 05:14:10 51° E 05:18:18 10° SSE
CZ-4B DEB 4.3 05:11:15 10° N 05:16:38 58° WNW 05:21:59 10° SSW
Okean-O 3.6 05:13:28 10° NNE 05:17:48 50° E 05:22:05 10° S
EO 1 Del DPAF 3.2 05:14:05 10° S 05:17:55 77° WSW 05:21:48 10° NNW
CZ-4B R/B 4.2 05:19:15 10° NNE 05:23:13 65° E 05:26:58 10° S
CENTAUR R/B 3.4 05:15:50 10° NW 05:23:28 45° WSW 05:31:20 10° S
Cosmos 1269 Rocket 4.3 05:18:29 10° SW 05:23:33 48° WNW 05:28:39 10° N
Cosmos 1697 Rocket 3.1 05:19:31 10° NNW 05:25:07 68° ENE 05:30:40 10° SSE
Cosmos 2123 Rocket 4.1 05:19:50 10° S 05:26:09 87° E 05:32:29 10° N
IRAS Rocket 4.3 05:20:50 10° N 05:26:27 72° WNW 05:32:03 10° SSW
Cosmos 389 Rocket 4.4 05:25:16 10° WNW 05:26:52 13° W 05:27:40 12° WSW
Cosmos 2278 3.9 05:21:36 10° NNW 05:27:08 52° WSW 05:32:38 10° S
DNEPR-1 R/B 3.7 05:23:03 10° NW 05:27:11 49° WSW 05:31:43 10° S
Okean 3 Rocket 3.5 05:25:29 10° SSW 05:29:49 66° W 05:34:13 10° N
Cosmos 2016 Rocket 4.0 05:26:17 10° N 05:32:31 74° W 05:38:48 10° S
Cosmos 2369 4.0 05:28:50 10° NW 05:34:16 46° WSW 05:39:41 10° S
Cosmos 1674 2.8 05:37:14 10° S 05:40:59 83° E 05:44:47 10° N
Cosmos 2251 Rocket 4.0 05:37:00 10° S 05:42:12 68° ESE 05:47:29 10° NNE
Okean O Rocket 3.1 05:41:00 10° NNW 05:44:07 19° WNW 05:47:13 10° WSW
Intelsat 5-3 Rocket 4.0 05:44:36 10° SSW 05:45:09 10° SSW 05:45:41 10° S
Cosmos 1802 Rocket 4.3 05:39:11 10° NNW 05:45:18 47° W 05:51:21 10° SSW
Cosmos 972 Rocket 4.4 05:42:37 10° NNW 05:48:54 64° W 05:54:26 10° S
BREEZE-M DEB (TANK) 3.4 05:44:36 10° WSW 05:52:24 78° NW 05:55:31 10° NE
